RH
67 65 60 57 55 51 50 49 49 48 46 44 43 43 43 41 39 40 40 40 42 42 42 40 38 36 33 33 35 38 42 45 46 45 44 42 41 41 40 39 39 38 38 38 38 37 38 38 38 37 37 38 40 41 43 44 45 48 47 46 49 51 56 61 63 62 61 60 59 54 52 54 50 52 54 54 55 54 55 56 54 52 50 46 40
64 63 59 56 53 50 50 48 48 47 44 40 38 37 37 37 37 39 39 39 39 39 37 35 33 33 32 34 39 41 46 48 48 48 46 44 43 43 41 40 39 37 35 36 37 36 37 36 36 36 36 37 38 39 40 41 42 45 46 48 52 56 59 62 63 62 61 62 62 56 52 54 53 54 55 53 55 56 56 54 52 50 48 43 35
61 59 57 55 50 47 48 47 46 46 42 37 36 35 36 37 37 38 38 38 37 35 34 34 35 35 37 41 44 46 48 50 50 50 49 46 45 46 44 42 40 37 37 39 42 41 39 38 36 36 37 38 39 41 43 44 44 46 49 52 56 59 59 59 61 61 61 63 62 56 55 56 54 57 57 56 57 57 55 51 49 47 46 40 33
56 55 54 51 47 46 46 47 46 45 41 36 35 35 36 37 37 37 37 37 36 36 36 38 40 42 45 47 49 51 52 53 53 51 49 47 48 50 50 49 45 45 48 49 49 49 48 45 42 42 44 46 47 47 47 48 49 51 53 56 58 59 59 60 61 60 61 62 60 57 57 56 56 58 58 57 57 56 52 48 45 44 43 38 34
53 51 50 47 46 47 46 47 46 44 41 35 34 34 34 35 35 36 37 37 36 36 38 43 46 47 50 53 55 56 57 56 55 53 49 49 53 54 56 56 53 54 57 55 52 53 53 52 51 51 53 55 55 52 52 54 55 57 59 60 60 59 60 62 61 58 60 61 59 57 55 55 59 60 58 58 57 52 49 46 42 42 41 37 35
51 48 46 44 45 47 46 46 45 42 38 34 32 32 32 32 33 34 36 36 35 36 41 47 49 51 54 57 60 60 60 57 57 56 51 52 57 59 63 62 57 57 58 56 54 55 55 56 57 58 60 60 58 56 57 60 61 59 58 58 60 61 62 64 63 60 60 60 58 55 54 57 61 60 58 58 53 46 43 42 39 40 39 36 36
48 46 44 43 43 43 43 43 40 37 34 33 32 32 31 32 34 34 34 33 34 39 44 48 50 54 58 60 61 62 60 58 58 57 54 56 59 60 64 64 60 59 59 59 58 58 58 59 61 61 60 59 57 58 59 61 60 57 56 60 61 60 62 63 61 59 59 58 55 53 55 58 60 59 57 54 47 38 36 36 35 35 35 36 37
45 45 43 42 41 40 40 39 37 34 33 33 32 32 33 35 35 34 33 34 39 44 47 49 51 54 58 59 60 60 60 60 59 59 59 59 60 61 63 65 65 63 62 62 62 62 61 61 61 60 58 57 56 56 55 54 56 59 62 67 65 62 62 60 58 58 58 57 55 55 56 58 57 55 50 45 39 36 35 35 34 35 35 36 36
43 43 42 41 41 42 42 41 40 38 36 35 34 34 35 36 36 35 36 40 45 47 48 49 52 55 57 58 58 59 60 60 59 59 60 60 61 61 62 66 67 67 65 63 63 63 61 60 60 58 57 54 52 51 51 52 56 61 65 68 68 68 67 64 62 62 61 59 56 56 56 55 53 49 44 39 37 35 34 34 34 35 36 36 35
41 41 40 41 42 43 45 44 45 44 39 36 36 35 36 37 38 40 42 46 48 48 47 48 52 55 54 54 55 57 60 60 58 57 58 58 59 58 61 64 66 69 70 65 61 60 58 58 56 54 53 52 52 53 54 56 60 63 64 65 68 69 67 65 64 62 62 59 56 55 54 52 50 47 42 38 36 33 34 35 35 36 37 37 34
39 38 38 40 42 42 43 45 46 45 41 36 34 34 36 39 42 45 47 48 47 46 47 49 52 52 51 52 53 55 57 59 58 57 56 56 56 56 59 61 62 67 70 68 64 60 56 55 54 53 53 55 56 57 60 61 63 64 63 62 64 64 62 61 59 58 58 55 53 52 50 49 46 44 40 37 35 35 37 38 37 38 38 37 35
37 36 37 40 42 42 43 47 47 43 38 32 31 35 40 44 46 47 47 46 45 47 49 51 50 48 47 50 53 54 56 57 57 57 57 56 55 56 57 58 59 62 65 68 67 63 59 58 57 54 54 57 60 61 64 64 62 62 61 60 60 59 57 57 55 53 52 50 49 49 49 49 46 41 36 34 36 37 38 38 37 37 37 38 39
36 36 38 40 43 44 44 45 42 36 31 30 34 41 46 48 47 45 44 45 46 49 51 50 47 44 44 48 51 52 52 55 56 57 56 55 56 58 58 57 58 58 60 62 63 61 59 56 52 50 53 58 62 63 64 63 59 57 57 56 56 54 53 52 50 48 48 48 48 49 50 48 43 36 32 33 35 36 35 36 37 38 40 41 42
35 35 38 41 43 43 41 37 33 30 30 35 42 47 50 48 45 44 45 46 47 48 48 47 45 42 42 45 47 48 50 54 55 55 55 55 57 60 59 58 58 58 58 58 58 57 53 49 48 51 55 60 63 64 63 60 56 52 51 51 51 49 49 47 45 45 46 47 48 48 46 41 34 29 30 34 35 34 35 38 39 41 42 42 42
34 34 35 37 38 38 34 30 29 31 36 42 46 48 49 46 45 45 46 45 45 46 45 43 41 39 40 42 44 48 50 52 55 56 57 58 59 60 59 59 58 59 57 54 53 51 48 46 48 54 58 61 64 65 62 58 53 49 48 49 49 48 47 45 44 44 45 46 46 44 39 33 29 30 34 36 36 35 37 40 42 43 43 43 42
34 33 32 34 33 32 29 29 34 38 41 43 45 46 46 46 46 46 44 43 43 45 43 39 36 35 38 40 43 47 49 51 55 57 58 56 56 57 58 59 58 57 55 51 50 48 46 47 51 56 58 60 62 63 60 55 51 49 48 49 48 47 45 43 42 42 44 44 43 39 34 31 32 35 38 38 38 39 41 45 46 45 45 44 44
32 32 32 31 29 27 28 34 40 42 42 43 45 45 45 46 46 43 41 41 42 41 37 34 32 32 36 38 41 44 46 50 53 54 54 52 52 53 54 56 57 55 51 50 49 45 44 48 53 56 58 59 60 60 58 52 49 49 48 47 47 46 44 41 41 42 43 44 42 38 35 36 38 39 41 41 42 44 46 49 48 48 47 47 46
31 31 30 29 27 29 33 40 43 42 45 46 46 45 45 46 43 41 39 40 40 37 35 33 30 31 34 36 38 40 43 47 49 50 52 52 51 51 50 52 54 52 49 47 45 42 40 46 52 54 55 56 57 58 55 51 48 48 47 46 45 44 43 41 42 44 44 44 44 41 40 41 42 43 44 45 47 50 51 52 51 50 50 49 47
29 27 28 28 29 34 38 42 44 43 45 46 46 45 45 44 40 39 38 39 39 37 37 34 31 32 33 36 39 41 43 45 47 49 52 52 51 50 50 51 51 47 45 43 43 43 41 44 48 51 52 52 55 58 56 52 48 47 46 45 44 43 43 42 41 42 43 44 45 46 46 46 46 47 47 48 51 53 53 52 51 51 50 48 46
25 26 28 29 32 38 40 41 43 42 42 44 45 45 44 42 39 37 37 39 41 40 39 35 33 34 35 39 43 43 44 46 48 49 50 51 50 50 50 50 49 44 41 42 45 48 48 48 48 50 51 51 54 56 56 53 50 46 44 44 43 43 43 42 41 42 44 47 49 49 49 48 48 49 50 51 53 54 53 52 51 50 47 46 44
25 27 30 32 35 39 41 41 41 41 41 42 44 44 43 41 38 37 37 41 44 45 44 40 38 39 38 39 42 42 42 43 46 48 49 50 50 51 52 52 49 45 43 44 48 51 52 53 52 54 53 52 52 52 52 51 49 46 43 43 42 43 44 44 45 46 49 50 50 50 50 50 49 50 51 52 53 53 52 52 49 46 44 43 42
29 30 32 34 36 38 40 40 38 39 40 41 44 44 42 39 36 36 40 44 47 50 48 44 44 43 41 39 40 40 40 40 42 45 47 49 51 53 53 53 51 49 48 47 49 51 53 55 56 57 56 54 51 46 43 41 41 41 40 40 41 43 44 46 47 48 49 49 49 50 51 50 51 52 52 52 52 51 50 48 45 44 43 41 41
31 31 33 35 36 37 38 37 35 38 38 40 44 43 40 36 33 39 46 48 49 50 48 47 45 43 40 39 39 40 40 40 40 43 44 46 50 52 52 52 52 52 52 52 52 52 54 58 59 58 57 56 51 42 35 32 31 31 32 34 36 39 41 42 44 45 46 47 48 50 51 51 52 52 51 51 49 47 46 45 44 44 42 41 40
30 31 33 35 35 35 36 35 35 36 38 40 43 41 39 34 33 41 48 48 47 48 47 46 45 43 40 39 41 42 43 42 41 42 43 45 48 52 53 51 51 51 53 54 53 52 54 58 59 59 59 57 52 45 39 36 33 30 29 29 31 33 35 37 38 39 40 41 42 44 45 45 45 44 44 44 43 43 44 44 45 44 41 40 39
27 29 30 31 32 35 35 34 35 35 36 39 41 39 37 33 32 41 47 46 46 47 46 46 45 44 42 42 44 46 47 46 45 44 43 44 47 51 52 51 50 50 51 52 52 51 52 54 56 58 59 57 54 50 48 46 42 39 35 32 31 32 32 32 33 34 34 35 36 36 37 37 36 36 36 36 37 39 41 43 43 40 38 36 35
26 26 27 29 32 35 35 34 35 34 35 38 40 37 36 33 31 38 44 45 46 46 46 46 46 46 45 46 46 47 49 48 47 45 44 45 45 48 49 50 50 50 49 50 50 49 50 51 54 56 57 56 54 53 53 51 49 46 43 39 37 36 34 33 32 32 32 32 32 32 32 32 32 33 33 33 34 36 38 38 38 36 35 34 34
25 24 26 30 33 34 35 34 34 33 34 39 39 36 36 33 30 36 43 44 44 45 46 47 47 47 48 48 47 47 48 49 47 45 45 45 45 46 47 48 48 48 49 50 51 51 50 51 52 54 54 53 52 53 53 51 50 49 47 46 44 42 39 38 37 35 32 31 30 29 29 29 32 33 33 33 34 35 35 35 35 36 37 37 38
25 25 28 33 36 36 35 34 33 32 34 39 38 36 37 34 30 36 44 44 44 45 47 48 47 46 47 48 48 48 47 48 48 46 45 45 46 46 47 49 49 48 49 51 53 54 53 53 52 52 52 52 52 52 52 51 50 50 49 48 47 45 42 41 40 38 36 33 31 30 29 30 32 33 33 34 34 34 35 36 37 38 38 38 38
27 27 30 35 40 39 36 34 32 31 35 38 36 36 37 34 32 38 45 44 43 45 47 49 49 47 46 47 49 50 49 48 48 49 48 46 46 46 47 49 51 51 51 51 54 55 55 54 53 52 52 53 53 51 52 52 50 49 49 48 47 45 43 41 39 39 38 36 34 32 30 30 29 29 29 30 32 34 35 36 37 37 37 37 37
29 30 32 36 42 42 37 33 31 32 36 37 36 36 36 36 37 41 44 44 43 45 49 52 51 49 48 48 49 51 52 51 51 52 52 49 47 48 48 49 50 52 53 53 54 55 54 53 54 53 52 52 52 52 51 50 49 48 47 46 45 44 43 40 38 38 37 36 34 32 30 29 28 27 27 28 29 30 31 32 32 34 35 38 39
31 32 33 36 41 44 40 32 30 33 36 37 37 37 36 38 41 42 43 44 43 46 52 56 55 51 50 51 52 53 54 53 54 55 54 53 51 50 50 50 49 48 51 52 52 53 51 51 54 55 53 50 49 49 50 49 48 46 45 45 44 44 42 40 38 37 35 34 32 30 29 29 29 29 29 29 28 28 28 29 30 32 34 36 37
33 33 34 36 38 44 42 31 29 34 37 39 40 38 37 40 43 42 43 43 44 49 54 58 58 55 52 52 53 54 55 55 56 56 55 53 52 51 49 50 49 47 48 51 51 50 48 47 49 52 52 50 47 47 48 49 47 44 43 44 44 43 42 39 38 36 34 33 31 30 29 28 29 30 30 29 29 28 28 29 29 30 31 32 32
33 33 35 36 35 40 41 32 29 34 38 41 42 40 39 41 43 44 43 42 45 51 55 58 60 58 55 53 53 54 56 57 57 57 56 54 52 51 49 49 49 47 46 48 49 50 49 47 46 48 50 50 49 47 47 48 47 45 43 42 41 41 40 38 37 36 35 33 32 32 31 30 29 30 30 30 29 29 29 29 29 30 31 31 31
34 33 35 35 34 37 39 35 31 34 40 43 44 41 40 42 43 44 43 40 44 50 53 55 56 57 55 54 56 56 56 57 57 57 56 55 53 52 50 49 48 48 46 45 46 48 49 49 47 47 47 48 49 49 47 46 47 46 42 40 39 38 38 37 36 36 35 33 32 32 32 32 31 31 31 31 32 33 32 31 31 32 33 32 30
35 33 34 34 34 35 37 37 34 36 41 45 45 41 40 43 44 44 42 38 43 48 49 51 52 53 54 54 57 58 56 55 55 56 55 55 55 53 52 50 49 48 47 44 43 44 45 47 48 48 46 45 47 49 50 49 48 45 41 39 38 37 37 35 35 35 34 34 34 34 34 34 34 33 32 33 35 36 36 35 34 33 32 31 28
35 34 34 34 34 34 35 38 36 36 40 45 46 41 41 44 46 46 41 38 43 46 46 48 49 49 51 54 56 57 56 54 55 56 56 56 55 53 51 49 48 48 46 44 41 40 42 45 47 47 45 42 42 44 49 53 49 42 40 40 39 38 38 37 37 36 35 36 35 35 36 36 36 35 33 33 34 35 36 36 34 31 29 28 27
36 36 34 33 34 34 34 37 36 35 37 42 44 42 43 44 45 46 40 39 44 44 45 48 49 50 51 53 55 57 58 57 56 57 57 57 55 52 51 49 47 46 46 46 43 41 42 45 45 46 44 41 40 40 44 49 45 38 39 40 40 41 40 39 39 38 38 37 36 36 36 37 38 37 34 33 33 33 34 33 30 28 28 28 29
35 37 34 32 33 34 34 36 36 35 36 39 41 42 45 44 43 43 39 40 44 43 45 49 49 51 53 53 54 55 57 57 56 56 56 57 56 55 54 51 47 46 46 46 45 42 43 44 43 44 42 40 39 39 40 41 39 37 38 38 38 39 37 36 36 36 36 35 36 37 37 37 37 37 36 34 34 34 33 30 28 28 30 30 31
34 38 37 32 32 34 34 35 36 36 36 38 39 41 43 42 40 40 39 41 44 43 45 50 51 52 53 52 52 54 55 55 54 54 54 54 55 55 54 52 49 46 45 44 43 41 41 42 43 42 40 38 38 36 36 37 38 39 38 36 34 35 34 34 35 34 33 32 34 35 36 35 35 35 35 34 34 33 32 30 29 31 31 31 31
33 36 39 34 32 34 35 35 35 36 36 37 39 40 41 40 38 38 39 41 43 43 45 50 53 53 52 51 51 53 54 53 54 54 54 54 53 52 51 50 48 46 44 44 43 42 40 41 42 42 39 38 37 35 34 35 38 39 39 36 35 34 34 34 35 33 31 31 32 34 34 34 34 33 32 33 33 33 30 29 29 29 28 29 30
35 35 38 35 31 33 35 34 34 35 35 36 40 40 39 37 35 38 39 41 43 43 44 49 53 52 49 49 51 53 53 52 53 56 55 54 52 50 49 48 47 45 45 45 44 42 41 41 42 42 40 38 37 35 32 33 36 37 37 36 35 35 35 35 33 31 30 30 32 34 35 35 35 32 30 28 29 28 27 27 26 24 25 27 28
37 34 34 34 32 31 34 34 33 34 34 36 39 38 37 33 33 37 39 40 43 42 44 48 50 49 47 48 51 53 53 51 52 54 56 55 52 50 48 47 45 44 45 44 43 42 41 42 43 43 40 38 36 34 32 31 34 36 36 36 35 34 34 34 32 31 30 31 33 35 35 34 33 31 28 26 26 26 26 24 23 23 25 25 27
38 34 32 32 31 30 31 33 31 32 33 36 38 37 36 31 32 37 39 41 44 42 43 46 46 46 48 49 50 52 54 53 52 52 53 53 51 49 47 45 44 43 43 43 42 42 42 43 44 42 39 37 36 34 31 30 33 35 37 37 37 36 35 33 32 32 31 32 34 35 34 32 30 28 26 26 27 27 26 24 23 24 25 26 27
38 35 32 30 30 29 29 30 30 30 31 34 36 36 35 31 31 36 39 42 44 42 43 44 43 45 49 50 50 51 52 51 49 48 48 48 46 46 45 45 44 43 42 41 40 41 42 42 43 42 39 38 38 35 33 33 33 34 36 38 38 37 36 33 33 33 33 32 33 33 32 30 28 27 27 27 28 29 27 25 24 26 27 27 28
37 35 32 29 28 28 28 29 29 29 30 32 34 35 33 31 30 35 39 44 45 42 42 44 42 43 47 49 49 49 48 47 46 46 46 46 46 46 46 47 47 45 43 40 39 40 41 41 42 41 39 39 39 37 37 36 35 34 35 38 38 36 35 34 34 34 33 31 31 31 30 29 28 28 29 28 28 29 29 26 26 29 29 29 29
36 34 33 30 27 27 27 28 29 28 28 30 33 33 32 29 28 32 38 44 46 43 42 43 41 41 43 44 46 46 45 45 45 46 46 45 46 47 46 47 48 46 45 42 40 38 40 40 40 40 39 39 39 39 39 37 36 34 34 36 37 36 34 34 35 34 32 31 30 29 28 28 26 27 28 27 27 29 29 28 29 30 32 32 32
35 35 34 32 29 27 26 26 28 29 28 29 31 32 31 28 25 28 35 41 45 43 42 44 42 40 40 40 42 43 44 44 44 44 44 44 45 45 45 45 46 45 45 45 42 38 37 37 36 37 38 39 40 40 40 37 35 34 33 35 36 36 35 35 35 34 32 30 28 26 27 26 25 25 26 27 27 28 29 30 29 30 32 33 35
36 35 34 33 31 29 25 24 27 30 29 28 29 30 30 28 25 26 32 37 41 43 43 45 43 39 38 38 38 39 41 43 43 42 43 44 44 44 43 43 43 43 43 44 43 40 38 36 34 35 36 38 39 38 38 36 36 35 34 34 36 36 35 34 34 34 32 30 27 26 25 24 24 25 25 26 27 28 29 30 30 31 33 35 37
38 35 33 33 32 30 27 24 26 30 30 28 28 28 28 28 26 26 31 34 38 42 42 43 44 40 37 37 36 36 38 40 42 42 42 42 42 43 44 42 41 40 40 41 42 41 39 35 32 32 34 35 35 34 36 36 36 36 35 35 35 35 34 32 32 32 30 28 27 27 26 25 24 24 25 26 27 28 28 29 30 33 35 38 39
41 37 33 33 32 31 29 26 25 28 30 28 27 27 26 27 27 26 30 31 33 38 41 41 41 39 37 36 34 33 34 36 38 40 40 39 39 42 43 42 40 39 38 38 38 37 37 35 32 32 32 32 32 32 33 35 35 35 35 35 35 34 31 30 30 30 30 29 27 26 25 25 24 24 26 27 28 28 28 30 32 35 37 38 39
45 40 35 33 32 31 30 27 25 25 27 28 26 26 25 25 26 26 28 30 30 34 37 37 37 37 35 34 33 31 31 32 33 35 37 37 37 39 39 39 38 35 33 34 35 35 35 35 33 33 32 31 31 31 32 34 35 34 34 34 35 33 30 29 30 31 31 30 27 26 25 25 25 25 26 27 28 29 30 32 34 36 38 39 42